カタログに戻る

STARLINK-3060

運用中通信VLEO
NORAD 49155·PAYLOAD·🇺🇸 United States

打ち上げ Sep 14, 2021 から Vandenberg Space Force Base

Loading…

次のパス (今後24時間)

TLE

最新Source: CelesTrak SupGP

元期: Sep 14, 2026, 22:08 UTC

1 49155C 21082AB  26257.92270833 -.00014387  00000+0 -12058-2 0  2572
2 49155  70.0003 137.3256 0002818 271.9819 239.8929 14.98335959    18

AllMySatでSTARLINK-3060をリアルタイム追跡

Download on the App Store